Temp
6 6 6 6 6 5 5 6 6 6 7 7 7 7 8 8 8 8 8 8 8 7 7 7 7 7 7 7 6 6 6 6 6 6 5 5 5 4 4 3 2 3 3 3 3 3 2
6 6 6 6 5 5 6 6 6 7 7 7 7 7 8 8 8 9 9 9 8 8 7 7 7 7 7 7 6 6 6 6 6 6 5 5 5 4 4 4 3 3 3 3 3 3 2
6 6 6 6 5 6 6 6 7 7 7 7 7 8 8 8 9 9 9 9 8 8 8 7 7 7 7 6 6 6 6 6 6 5 5 5 5 4 4 4 4 4 3 2 3 2 2
6 6 6 6 6 6 6 7 7 7 7 7 8 8 8 8 9 9 9 9 9 8 8 7 7 7 7 6 6 6 6 6 6 6 5 5 5 4 4 4 4 3 2 3 3 2 2
6 6 6 6 6 6 7 7 7 8 8 8 8 8 8 8 8 9 9 8 8 8 8 7 7 7 7 6 6 6 6 6 6 6 5 5 4 4 3 3 3 3 3 3 3 2 2
6 6 6 6 6 6 7 7 8 8 8 8 8 8 8 8 8 8 8 8 8 8 7 7 7 7 6 6 6 6 6 6 6 6 6 5 4 3 4 4 3 2 2 2 2 2 2
6 6 6 6 6 6 7 7 8 8 8 9 8 9 9 8 8 8 8 8 8 8 7 7 7 7 6 6 6 6 6 6 6 6 4 4 4 3 3 3 3 2 1 2 2 2 2
6 6 6 6 6 7 7 7 8 8 8 9 9 9 9 9 8 8 8 8 8 7 7 7 6 6 6 6 6 5 5 6 5 5 4 3 4 3 3 4 3 2 2 2 2 1 1
5 6 6 6 6 7 7 7 8 8 8 9 9 9 9 8 8 8 8 8 7 6 6 6 6 6 6 6 6 6 5 5 5 5 4 4 3 4 3 3 3 2 2 1 1 2 2
6 6 6 6 7 7 7 7 8 8 8 8 8 8 8 9 9 9 8 8 7 6 6 6 6 6 6 6 6 5 5 5 5 5 4 4 4 3 3 1 2 2 2 1 1 1 1
5 6 6 6 6 7 7 7 7 8 8 8 8 8 8 9 9 9 9 8 8 7 6 6 6 6 6 5 5 5 5 5 5 4 4 4 3 3 3 2 2 2 3 2 1 1 -0
6 6 6 6 6 6 7 7 7 8 7 7 8 8 8 8 9 9 9 8 8 6 4 6 6 5 5 5 5 5 5 5 5 5 4 3 3 3 3 2 2 2 3 3 1 1 -1
5 5 5 6 6 6 6 7 7 7 7 7 7 7 8 8 9 9 9 8 7 6 6 6 5 5 5 5 5 5 5 5 4 4 3 3 2 3 2 2 2 1 2 2 -0 -1 -0
5 5 5 6 6 6 6 6 7 7 7 7 7 7 7 8 8 8 8 7 7 6 6 5 5 5 5 5 5 4 3 2 3 3 2 1 2 2 2 2 1 1 1 0 -1 -1 -1
5 5 5 5 6 6 6 6 6 6 7 7 7 7 7 7 8 8 8 7 7 6 6 5 5 4 3 4 4 4 3 3 3 2 2 2 2 2 2 2 1 0 0 -0 -1 -0 -0
5 5 5 5 5 6 6 6 6 6 6 6 6 6 7 7 7 7 7 7 7 6 6 5 4 4 4 4 4 3 3 3 2 2 1 1 1 2 2 2 1 -0 -0 -1 -1 -1 -1
4 4 4 5 5 6 6 6 6 6 6 6 6 6 6 6 6 6 7 6 6 6 5 5 5 4 4 4 4 3 2 2 2 1 1 1 -0 2 1 1 -0 -1 -1 -1 -1 -1 -2
4 4 4 5 5 5 5 5 6 6 6 6 6 6 6 6 6 6 6 6 6 5 5 5 5 4 3 3 3 3 3 2 2 1 -0 -0 -1 -1 1 0 0 -0 -1 -1 -1 -0 -1
3 4 3 4 5 5 5 5 5 5 5 5 5 6 6 5 5 5 5 5 5 5 5 4 4 4 3 3 2 2 2 2 2 1 -0 -1 -2 -2 1 0 -0 -1 -2 -3 -2 -2 -3
3 3 4 4 4 5 5 5 5 5 5 5 5 5 5 5 5 4 5 5 5 5 4 4 4 3 3 2 2 2 2 0 1 0 -1 -2 -2 -2 -1 -1 -2 -2 -2 -3 -4 -4 -3
3 3 3 4 5 5 5 4 4 5 5 4 4 4 4 4 4 4 4 4 4 4 4 3 3 3 2 1 1 1 1 0 -1 -2 -1 -2 -2 -3 -3 -3 -3 -3 -1 -0 -3 -1 -4
3 4 4 4 4 5 5 4 4 4 4 4 4 3 3 3 3 3 3 3 3 3 3 3 3 2 2 1 1 0 0 -0 -1 -2 -2 -3 -2 -3 -3 -3 -3 -4 -0 -1 -3 -1 -2
3 4 4 4 4 4 4 4 4 4 3 3 3 3 3 3 3 3 3 3 3 2 2 2 2 1 1 1 1 0 0 -0 -1 -2 -3 -3 -3 -3 -3 -3 -4 -3 1 0 1 0 -0
2 2 3 4 4 4 4 4 3 3 3 3 3 2 2 2 3 3 3 2 2 2 2 2 2 1 1 1 0 0 0 0 -1 -1 -3 -3 -4 -4 -4 -4 -4 -0 0 0 1 -1 -1
1 2 2 3 3 3 3 3 3 3 3 2 2 2 1 2 2 2 2 2 2 2 1 1 1 1 0 -0 -0 -1 -1 -1 -1 -1 -1 -2 -3 -4 -4 -3 -2 -1 -0 -1 -1 -2 -2
1 2 2 2 2 2 2 2 2 2 2 2 1 1 1 1 1 1 2 1 1 1 1 0 1 0 -1 -1 -2 -3 -2 -1 -2 -2 -2 -2 -3 -4 -4 -4 -3 -1 -1 -2 -2 -3 -3
0 1 1 1 1 1 2 1 1 2 2 1 1 0 0 0 1 0 0 0 0 0 -0 -1 -1 -1 -2 -2 -2 -4 -3 -3 -3 -2 -2 -2 -3 -4 -3 -5 -3 -3 -2 -2 -4 -3 -5
-0 -0 -0 0 1 1 1 1 0 0 0 1 1 -1 -0 -0 -0 -0 -0 -0 -0 -0 -0 -1 -1 -2 -2 -3 -3 -3 -4 -3 -3 -3 -2 -3 -3 -4 -4 -5 -4 -3 -4 -4 -4 -5 -5
-1 -1 -1 -1 -0 -0 0 -0 -0 -0 -1 -0 -0 -1 -1 -1 -0 0 -0 0 -0 -1 -2 -1 -1 -2 -2 -3 -3 -3 -4 -3 -4 -4 -4 -4 -3 -4 -4 -3 -3 -4 -4 -5 -5 -6 -7
Height
3189 3189 3189 3188 3187 3185 3183 3181 3178 3176 3174 3172 3169 3167 3164 3161 3159 3156 3155 3154 3153 3154 3154 3155 3155 3154 3154 3153 3152 3151 3149 3147 3145 3143 3141 3138 3137 3136 3135 3135 3135 3133 3132 3131 3131 3130 3128
3191 3191 3190 3189 3188 3186 3184 3182 3180 3178 3176 3174 3171 3168 3166 3163 3160 3158 3156 3155 3154 3155 3156 3156 3156 3156 3155 3154 3153 3151 3150 3148 3146 3143 3141 3139 3138 3137 3135 3134 3134 3133 3132 3131 3131 3130 3129
3192 3192 3191 3190 3189 3187 3185 3184 3182 3180 3178 3176 3174 3171 3168 3164 3162 3160 3158 3157 3156 3156 3157 3157 3157 3156 3156 3156 3153 3152 3150 3148 3146 3144 3142 3139 3138 3137 3135 3134 3134 3132 3131 3130 3129 3129 3127
3194 3193 3192 3191 3190 3188 3186 3185 3183 3181 3179 3177 3175 3173 3170 3167 3164 3162 3161 3160 3159 3159 3159 3159 3158 3157 3157 3155 3154 3152 3150 3148 3146 3143 3142 3140 3139 3138 3137 3136 3134 3132 3132 3132 3128 3127 3125
3194 3193 3193 3192 3191 3189 3188 3186 3184 3183 3181 3179 3177 3175 3172 3169 3167 3165 3164 3162 3162 3161 3160 3160 3159 3158 3157 3156 3155 3152 3150 3148 3146 3144 3142 3140 3139 3137 3136 3135 3135 3134 3133 3133 3131 3127 3124
3194 3194 3194 3193 3191 3190 3189 3187 3185 3183 3182 3180 3178 3176 3174 3172 3169 3168 3166 3164 3163 3162 3162 3161 3160 3161 3159 3158 3155 3153 3151 3148 3146 3144 3143 3141 3139 3138 3137 3135 3136 3134 3133 3132 3131 3127 3123
3195 3195 3194 3193 3192 3191 3190 3188 3186 3184 3182 3181 3180 3178 3176 3174 3171 3169 3167 3165 3166 3165 3163 3162 3161 3160 3159 3158 3156 3154 3151 3149 3146 3143 3143 3142 3142 3140 3139 3138 3137 3135 3134 3132 3129 3125 3121
3195 3195 3194 3194 3193 3191 3190 3188 3186 3184 3183 3181 3180 3179 3177 3175 3173 3170 3167 3165 3164 3165 3164 3162 3162 3160 3159 3157 3156 3154 3152 3150 3147 3145 3143 3143 3142 3141 3140 3138 3136 3135 3134 3131 3126 3122 3118
3195 3195 3194 3193 3192 3191 3190 3188 3186 3185 3183 3181 3180 3179 3177 3175 3172 3170 3167 3165 3164 3163 3164 3164 3162 3161 3160 3158 3155 3154 3152 3150 3147 3146 3144 3143 3143 3140 3138 3137 3135 3133 3132 3128 3125 3118 3116
3195 3194 3194 3193 3192 3191 3189 3187 3186 3185 3183 3181 3180 3178 3177 3174 3174 3170 3167 3165 3163 3163 3165 3166 3164 3162 3160 3157 3157 3154 3151 3151 3148 3146 3144 3144 3142 3140 3139 3138 3136 3133 3130 3126 3123 3120 3119
3194 3194 3193 3192 3192 3190 3188 3186 3185 3184 3182 3181 3179 3178 3176 3174 3172 3170 3169 3165 3163 3164 3166 3168 3164 3162 3160 3160 3158 3155 3152 3150 3148 3147 3147 3145 3141 3139 3139 3138 3136 3133 3128 3123 3121 3120 3119
3193 3193 3192 3191 3191 3189 3188 3186 3184 3183 3182 3180 3179 3178 3176 3174 3172 3170 3167 3165 3165 3167 3166 3166 3165 3162 3160 3158 3156 3154 3152 3150 3148 3146 3144 3143 3141 3140 3138 3137 3134 3130 3125 3120 3119 3120 3119
3192 3191 3191 3190 3189 3188 3187 3185 3184 3182 3180 3179 3178 3176 3175 3174 3172 3169 3167 3166 3167 3165 3168 3167 3164 3161 3160 3158 3155 3153 3151 3149 3148 3146 3145 3143 3140 3139 3137 3135 3133 3131 3126 3122 3122 3120 3118
3189 3189 3189 3188 3187 3186 3185 3183 3182 3181 3179 3178 3177 3176 3175 3173 3171 3168 3167 3167 3166 3167 3166 3165 3163 3161 3160 3157 3156 3153 3151 3149 3148 3147 3145 3144 3140 3139 3137 3136 3133 3129 3129 3129 3130 3123 3117
3186 3186 3186 3185 3185 3184 3182 3181 3180 3179 3178 3177 3176 3175 3174 3172 3170 3168 3168 3166 3167 3166 3166 3164 3162 3161 3160 3157 3156 3153 3151 3150 3149 3148 3148 3143 3141 3139 3136 3134 3134 3130 3129 3129 3126 3120 3118
3182 3183 3183 3183 3182 3182 3181 3179 3178 3177 3176 3175 3175 3174 3173 3171 3170 3169 3168 3167 3166 3165 3164 3163 3162 3161 3159 3157 3156 3153 3151 3151 3149 3149 3147 3145 3140 3136 3134 3132 3129 3129 3129 3128 3127 3123 3116
3178 3179 3180 3180 3179 3178 3178 3177 3176 3175 3174 3174 3173 3172 3172 3170 3169 3168 3167 3166 3165 3164 3163 3163 3161 3160 3159 3157 3155 3153 3152 3151 3147 3146 3145 3143 3142 3139 3133 3131 3128 3128 3127 3127 3127 3124 3121
3173 3175 3175 3175 3175 3175 3174 3175 3173 3173 3172 3171 3171 3171 3170 3169 3170 3167 3166 3166 3165 3164 3163 3162 3160 3158 3157 3156 3154 3153 3152 3149 3147 3144 3141 3141 3138 3134 3132 3128 3127 3125 3126 3126 3126 3123 3119
3169 3170 3171 3171 3171 3171 3171 3171 3171 3170 3170 3169 3168 3168 3167 3167 3167 3166 3165 3165 3164 3162 3161 3160 3159 3157 3156 3154 3154 3151 3149 3148 3145 3143 3140 3137 3135 3132 3127 3127 3127 3124 3123 3122 3122 3120 3113
3163 3164 3166 3167 3166 3166 3166 3167 3167 3166 3166 3166 3166 3165 3165 3164 3164 3164 3163 3162 3162 3161 3159 3157 3156 3155 3153 3152 3151 3148 3145 3142 3143 3141 3138 3134 3130 3130 3128 3124 3124 3119 3116 3117 3118 3112 3105
3157 3158 3159 3160 3161 3161 3161 3162 3162 3162 3163 3163 3163 3162 3162 3161 3162 3161 3161 3160 3159 3157 3156 3155 3153 3152 3150 3148 3146 3143 3141 3140 3137 3134 3133 3131 3124 3122 3119 3117 3116 3111 3106 3104 3103 3100 3101
3150 3151 3152 3153 3154 3155 3156 3156 3157 3158 3158 3159 3159 3159 3158 3157 3157 3157 3156 3156 3155 3154 3153 3151 3150 3147 3146 3144 3143 3141 3138 3136 3134 3130 3128 3123 3120 3116 3112 3111 3108 3101 3095 3092 3090 3090 3088
3143 3144 3145 3146 3147 3148 3149 3149 3150 3151 3152 3152 3153 3154 3153 3152 3152 3152 3152 3151 3151 3150 3148 3146 3145 3143 3141 3139 3136 3133 3131 3128 3127 3126 3124 3118 3117 3116 3106 3107 3103 3096 3087 3087 3085 3085 3084
3133 3136 3136 3138 3139 3140 3141 3143 3143 3144 3145 3146 3147 3147 3146 3144 3146 3146 3145 3145 3145 3145 3143 3140 3140 3136 3134 3133 3129 3126 3124 3120 3118 3116 3116 3114 3112 3112 3106 3106 3099 3090 3087 3085 3082 3080 3080
3124 3127 3129 3129 3131 3132 3134 3136 3136 3137 3137 3138 3141 3140 3139 3136 3138 3140 3139 3139 3138 3138 3137 3135 3134 3130 3128 3126 3122 3116 3113 3112 3109 3106 3107 3108 3107 3106 3104 3099 3087 3081 3081 3081 3078 3074 3072
3116 3118 3120 3122 3123 3124 3125 3128 3129 3130 3130 3131 3133 3133 3132 3130 3130 3133 3131 3132 3131 3131 3130 3126 3126 3125 3123 3120 3118 3113 3110 3106 3105 3103 3102 3102 3102 3102 3100 3096 3087 3078 3076 3074 3071 3067 3065
3107 3109 3112 3113 3114 3116 3117 3118 3121 3122 3122 3123 3125 3126 3125 3122 3123 3125 3124 3124 3125 3125 3122 3120 3116 3117 3116 3115 3113 3109 3104 3103 3100 3098 3097 3096 3095 3093 3091 3088 3078 3071 3069 3067 3067 3064 3057
3098 3099 3101 3103 3105 3107 3108 3110 3111 3113 3113 3114 3117 3117 3116 3112 3114 3117 3118 3115 3116 3115 3115 3112 3111 3107 3107 3108 3106 3103 3097 3096 3091 3091 3091 3089 3087 3081 3081 3079 3072 3064 3063 3064 3060 3055 3050
3087 3089 3091 3092 3095 3097 3098 3101 3103 3104 3104 3105 3105 3109 3106 3103 3100 3105 3106 3108 3108 3107 3107 3103 3102 3100 3098 3097 3096 3093 3091 3088 3084 3081 3080 3081 3078 3078 3075 3068 3064 3059 3054 3052 3049 3045 3040
Wind_Speed
8 8 8 9 10 12 14 16 18 18 19 20 21 20 20 18 17 15 13 9 7 6 6 5 5 6 8 9 11 13 14 16 15 16 14 13 13 11 7 6 4 8 8 8 7 8 9
7 7 8 9 11 12 14 16 17 17 18 20 22 24 23 20 20 18 16 13 10 8 7 6 7 7 9 11 14 16 14 15 16 17 14 13 13 12 11 8 6 8 10 10 11 11 15
6 6 8 9 11 12 14 15 14 14 15 17 20 22 25 24 22 18 17 15 13 11 9 8 7 9 11 12 16 15 15 15 17 16 14 13 12 13 13 9 12 11 13 14 12 19 21
5 6 7 9 11 12 13 14 14 13 13 15 18 21 22 25 23 18 16 14 13 12 10 8 8 9 12 15 16 14 17 17 16 15 13 12 11 14 14 11 13 15 12 12 15 19 23
5 6 7 8 10 11 13 14 13 13 12 13 15 17 20 23 22 19 15 12 11 11 9 11 12 9 15 15 13 16 17 17 16 14 12 11 13 15 19 14 8 6 10 12 15 19 23
3 5 6 7 10 12 13 14 14 13 14 13 14 15 17 20 21 19 15 12 10 9 8 9 15 7 13 12 14 16 17 16 14 13 10 10 12 9 9 13 6 12 15 14 15 16 23
2 4 6 8 10 12 13 14 14 13 13 12 13 14 15 17 19 18 16 12 9 7 7 10 12 12 12 13 13 16 17 15 13 16 12 8 11 12 14 13 11 13 14 18 13 20 24
3 5 6 7 11 12 13 14 14 13 12 12 11 12 13 15 16 17 16 12 9 5 4 8 12 12 14 15 12 16 18 16 13 12 11 7 11 12 12 11 15 14 14 13 16 18 23
4 6 7 9 12 13 13 13 14 13 12 11 11 11 12 15 17 19 17 13 8 2 4 6 12 11 14 15 11 17 18 15 13 11 12 4 10 11 10 11 14 13 12 23 22 24 8
7 8 9 11 12 13 13 12 13 13 12 11 10 10 12 14 15 18 17 14 9 2 3 7 10 11 15 14 13 17 18 17 15 12 11 6 14 10 9 9 16 10 21 23 20 15 6
9 10 10 11 12 13 13 12 13 12 12 11 10 10 11 12 14 17 16 13 6 3 2 11 10 13 15 12 15 15 17 15 12 12 9 10 12 10 10 12 17 14 19 18 20 15 10
11 11 11 12 12 13 14 14 13 12 11 10 10 10 10 11 14 15 14 10 5 2 2 7 10 13 13 13 15 14 18 15 9 12 11 14 10 9 14 12 15 24 22 6 9 9 2
11 11 12 13 13 14 14 14 13 13 11 11 10 9 10 10 12 13 11 7 2 3 9 6 11 12 9 13 12 15 16 13 13 10 14 9 13 10 11 16 13 20 17 6 4 2 4
14 15 16 15 14 14 15 14 13 13 11 10 9 9 9 11 12 12 9 6 3 5 5 9 10 8 9 14 12 16 12 8 12 12 11 11 8 13 18 16 16 9 9 3 4 3 8
16 15 16 16 16 16 15 16 13 12 12 11 10 9 10 10 11 9 7 5 3 6 7 8 9 8 10 15 12 13 14 9 12 11 11 9 5 16 10 16 20 8 2 9 6 10 9
19 16 16 17 17 17 16 16 15 13 12 12 11 10 10 10 10 8 6 4 5 5 7 7 5 5 7 11 8 11 7 9 14 10 14 10 13 9 15 20 8 7 9 3 3 4 5
21 19 19 19 18 17 18 17 15 14 13 12 11 10 9 9 9 6 6 5 5 5 7 7 7 7 9 10 13 11 5 14 8 17 16 16 5 15 18 11 17 16 9 3 7 7 3
23 21 22 21 20 18 18 18 16 15 13 13 12 10 10 9 9 6 7 6 6 7 8 8 8 7 9 11 10 10 7 13 17 20 17 10 11 14 24 19 17 12 9 9 5 3 10
27 26 24 23 21 20 19 19 18 16 14 13 13 12 11 9 7 9 7 7 6 9 9 10 9 10 12 13 9 10 14 15 21 16 11 17 7 10 6 6 6 13 14 15 14 20 20
32 29 26 25 26 23 20 20 19 18 16 14 14 11 11 12 11 8 10 9 9 10 11 10 12 13 14 15 13 11 19 18 20 21 22 22 16 15 17 20 24 33 33 27 22 19 22
32 32 32 32 28 26 22 21 21 19 18 17 15 15 14 12 12 13 12 13 13 13 13 14 16 15 16 17 16 19 18 20 25 25 27 22 24 22 26 27 27 30 26 24 26 33 29
36 35 33 33 31 29 25 23 22 22 20 19 18 17 17 17 15 16 15 15 15 15 16 18 17 19 20 21 19 24 26 26 28 25 22 25 23 26 34 31 19 26 38 34 27 23 28
33 33 32 32 32 30 28 26 23 23 22 21 19 19 20 23 20 18 19 18 18 19 18 17 22 24 25 23 27 28 29 30 29 28 28 30 28 26 25 23 23 27 12 9 20 25 26
34 34 32 31 32 31 30 29 27 25 24 24 22 22 22 26 24 22 22 21 22 23 23 23 24 26 28 26 30 31 32 30 23 22 23 31 28 23 27 26 5 7 13 22 18 12 21
33 35 34 31 31 32 31 31 29 28 27 26 24 25 26 29 28 26 25 25 25 27 27 28 27 29 27 26 29 29 28 13 11 13 16 20 29 23 10 18 30 31 11 14 22 30 26
31 33 35 34 32 32 30 31 30 30 30 29 28 28 29 31 32 28 30 27 26 28 31 33 32 28 26 24 23 12 9 9 6 9 8 13 17 27 15 9 6 12 23 26 30 26 15
32 32 34 34 32 32 32 30 32 32 33 33 30 30 32 36 36 33 34 33 32 32 30 35 35 28 24 24 25 20 19 19 10 9 11 14 16 23 30 19 22 23 22 26 13 19 30
39 36 33 33 33 32 33 34 33 34 33 38 35 32 36 41 39 37 35 36 36 31 34 32 31 31 27 22 23 21 16 16 17 20 19 20 13 17 14 11 14 22 19 28 33 38 36
42 40 37 33 33 33 34 34 35 35 34 39 41 36 38 42 47 40 40 37 35 34 39 41 38 38 27 21 18 15 16 18 16 26 27 25 30 22 18 21 34 30 34 43 37 48 43
Wind_Direction
81 69 62 54 43 36 32 32 33 39 41 37 36 33 30 26 20 15 20 33 67 86 80 58 47 42 34 29 25 6 359 2 3 6 8 11 15 17 13 360 15 340 331 311 316 325 330
85 71 60 49 40 36 32 32 35 38 39 40 40 38 33 29 26 39 47 60 81 91 74 59 57 42 29 32 14 1 2 0 2 3 5 9 15 13 10 6 2 334 329 335 338 347 334
82 69 54 43 38 33 30 29 31 35 36 35 33 34 34 33 35 44 53 60 74 78 69 64 50 35 25 21 6 6 3 3 359 3 6 9 12 12 6 13 15 6 10 360 345 334 330
80 65 51 38 29 23 21 21 20 23 27 27 29 29 32 34 36 42 47 51 62 69 65 53 35 28 22 12 8 9 4 1 3 5 9 13 20 10 28 39 26 28 358 353 332 325 324
66 47 37 26 17 16 13 13 13 11 12 14 18 23 26 30 33 36 39 45 53 57 53 41 23 21 18 11 12 10 6 3 5 10 15 23 23 29 22 0 330 27 344 341 330 320 314
50 30 16 9 6 8 6 7 8 8 10 15 19 22 23 26 27 30 31 32 36 37 35 25 24 25 9 16 12 8 8 6 10 12 27 29 32 41 357 11 5 329 340 346 335 309 307
27 5 358 356 358 355 358 2 3 4 5 11 15 17 20 22 21 22 21 16 11 27 40 35 22 19 14 7 8 10 9 8 9 22 20 26 18 18 10 8 358 351 343 329 305 306 315
337 346 342 341 345 345 348 353 357 356 356 357 2 7 10 13 14 14 13 11 6 358 8 17 13 11 6 2 5 11 5 9 12 20 13 11 348 358 0 5 2 352 326 316 319 319 310
302 316 322 327 333 335 337 341 350 349 347 348 350 355 0 3 5 6 5 5 2 353 336 1 1 4 2 359 5 6 6 6 9 10 7 16 347 347 349 3 346 359 325 324 323 332 355
285 302 312 318 327 332 333 334 341 343 342 342 344 347 353 0 360 1 360 359 358 350 8 357 359 359 357 0 1 2 3 1 1 3 4 348 342 340 347 347 344 352 335 324 332 337 324
289 302 311 319 324 328 331 329 335 338 339 339 340 343 348 355 358 357 356 357 20 49 34 342 351 350 351 3 353 3 358 355 357 352 346 339 333 334 343 335 342 337 340 328 325 330 334
288 298 311 318 321 325 327 326 330 333 335 336 337 341 346 350 353 354 357 5 36 40 338 337 341 345 351 359 357 358 356 359 1 349 349 345 342 337 333 337 343 341 349 347 289 323 287
282 290 301 311 313 318 321 321 323 324 328 330 334 340 342 342 349 353 360 9 26 43 338 337 339 347 0 358 0 356 358 14 14 10 348 352 322 333 332 340 347 342 0 354 351 298 247
277 286 292 301 307 312 316 315 318 317 320 321 325 331 332 335 348 356 1 12 69 341 340 338 343 353 7 2 358 355 9 337 0 5 3 335 328 328 324 329 338 358 32 40 305 326 296
269 276 285 293 298 304 308 309 311 312 311 310 311 319 327 335 346 355 1 24 353 336 339 347 351 27 342 347 353 360 338 340 349 352 8 338 297 311 329 323 326 315 325 315 263 285 270
268 275 281 288 292 300 302 304 304 306 305 307 311 321 327 340 349 352 357 9 346 342 343 348 10 342 342 327 350 334 327 323 330 340 345 321 306 317 319 320 319 325 315 312 268 301 299
267 273 282 286 288 291 295 296 299 299 301 303 307 317 322 331 339 342 354 352 339 339 342 341 339 326 330 332 332 336 298 321 325 325 331 330 303 313 318 314 307 307 307 301 286 260 270
266 274 275 283 289 289 290 292 291 292 294 298 303 311 316 317 323 320 335 337 334 338 339 333 330 325 323 321 321 315 298 302 317 318 318 312 297 289 316 284 291 295 274 263 270 282 269
266 271 278 282 284 285 288 289 288 287 289 291 292 295 299 301 304 308 321 327 326 333 330 326 322 323 324 318 321 300 304 305 307 309 300 312 295 307 306 282 302 310 307 303 278 272 264
262 267 270 275 284 280 279 282 281 280 281 282 286 285 289 294 288 287 308 311 312 316 314 315 316 316 315 311 307 293 306 298 304 304 304 300 277 258 264 281 290 293 294 285 272 265 257
264 266 272 276 276 275 273 276 276 275 275 275 276 280 280 276 281 288 292 294 301 304 306 310 309 310 308 302 301 303 304 299 305 302 298 294 282 285 286 288 293 293 295 293 271 267 256
263 270 271 270 270 268 264 267 273 272 271 271 272 274 273 273 277 283 283 291 297 301 302 302 305 306 304 295 296 290 291 291 291 291 287 283 284 290 294 303 296 290 304 301 274 268 273
262 268 269 269 267 264 263 263 263 266 266 266 267 269 273 276 275 276 282 290 295 300 300 302 308 304 300 297 302 300 298 294 290 281 279 280 280 288 290 303 301 297 304 308 313 293 303
264 270 267 265 265 262 259 259 259 258 258 261 261 262 264 270 271 276 280 283 292 291 293 298 305 301 299 298 298 298 298 299 288 277 266 259 273 278 286 302 244 297 269 291 297 305 305
261 264 268 264 261 261 261 258 256 256 255 255 255 256 259 263 271 271 278 281 283 285 290 291 299 299 298 296 301 304 311 312 303 265 263 251 249 260 255 268 282 301 296 282 305 306 303
257 261 267 264 261 260 257 260 259 259 258 254 252 255 256 263 262 268 274 277 284 282 291 294 296 299 294 288 289 285 284 270 268 281 256 260 257 245 254 259 265 282 292 298 299 292 292
249 252 257 259 259 259 257 255 257 256 256 255 251 254 257 261 263 265 271 278 280 281 278 290 291 293 289 280 273 267 270 263 252 248 273 274 265 248 258 251 271 269 281 295 290 288 301
248 246 250 253 254 257 259 256 253 254 255 259 255 253 257 261 264 269 269 273 278 276 283 281 284 284 283 263 264 263 251 252 252 250 253 275 260 262 263 236 260 263 274 297 301 303 309
249 250 248 249 253 256 256 259 259 256 254 258 261 259 261 261 265 266 268 265 267 274 280 273 275 280 269 256 250 256 255 255 254 272 280 253 263 274 265 270 280 277 303 310 304 303 312